When you browse on this site, cookies collect data to enhance your experience and personalize the content and advertising you see.
Visit our Privacy Policy to learn more. By continuing to use the site, you agree to this use of cookies and data.
  • In Hungary
  • List of Countries
  • For 7 days
  • Water Temperature
  • Weather Map
  • News
  • Weather Widgets
  • user-avatar
    Login

    Hourly Weather Truro

    Today, 18 November, Monday

    Time Temperature Precipitation Wind Pressure Humidity
    00:00 -2°C° 0 mm 1 mps 760 mmHg 80%
    01:00 -2°C° 0 mm 1 mps 760 mmHg 80%
    02:00 -1°C° 0 mm 1 mps 760 mmHg 81%
    03:00 -3°C° 0 mm 2 mps 759 mmHg 81%
    04:00 -3°C° 0 mm 2 mps 759 mmHg 82%
    05:00 -3°C° 0 mm 2 mps 758 mmHg 83%
    06:00 -2°C° 0 mm 2 mps 758 mmHg 82%
    07:00 -2°C° 0 mm 2 mps 758 mmHg 81%
    08:00 -1°C° 0 mm 3 mps 758 mmHg 80%
    09:00 0°C° 0 mm 3 mps 757 mmHg 77%
    10:00 +1°C° 0 mm 3 mps 756 mmHg 75%
    11:00 +3°C° 0 mm 3 mps 755 mmHg 73%
    12:00 +3°C° 0 mm 4 mps 755 mmHg 72%
    13:00 +3°C° 0 mm 4 mps 754 mmHg 72%
    14:00 +4°C° 0 mm 4 mps 753 mmHg 72%
    15:00 +3°C° 0.1 mm 4 mps 753 mmHg 77%
    16:00 +1°C° 0.1 mm 4 mps 752 mmHg 82%
    17:00 +1°C° 0.1 mm 4 mps 751 mmHg 87%
    18:00 +1°C° 1.4 mm 4 mps 750 mmHg 89%
    19:00 0°C° 1.4 mm 4 mps 750 mmHg 92%
    20:00 0°C° 1.4 mm 5 mps 749 mmHg 94%
    21:00 +1°C° 2.5 mm 5 mps 748 mmHg 94%
    22:00 +1°C° 2.5 mm 5 mps 746 mmHg 95%
    23:00 +1°C° 2.5 mm 5 mps 745 mmHg 95%

    Tomorrow, 19 November, Tuesday

    Time Temperature Precipitation Wind Pressure Humidity
    00:00 +2°C° 3.7 mm 6 mps 744 mmHg 95%
    01:00 +2°C° 3.7 mm 6 mps 743 mmHg 95%
    02:00 +2°C° 3.7 mm 7 mps 742 mmHg 94%
    03:00 +3°C° 0.2 mm 6 mps 742 mmHg 95%
    04:00 +3°C° 0.2 mm 6 mps 741 mmHg 95%
    05:00 +3°C° 0.2 mm 5 mps 741 mmHg 95%
    06:00 +3°C° 0.1 mm 5 mps 740 mmHg 96%
    07:00 +3°C° 0.1 mm 5 mps 740 mmHg 96%
    08:00 +4°C° 0.1 mm 4 mps 740 mmHg 97%
    09:00 +4°C° 0 mm 4 mps 740 mmHg 97%
    10:00 +5°C° 0 mm 3 mps 740 mmHg 97%
    11:00 +5°C° 0 mm 3 mps 741 mmHg 97%
    12:00 +5°C° 0 mm 3 mps 741 mmHg 97%
    13:00 +6°C° 0 mm 2 mps 741 mmHg 96%
    14:00 +6°C° 0 mm 2 mps 742 mmHg 96%
    15:00 +5°C° 0 mm 2 mps 743 mmHg 97%
    16:00 +5°C° 0 mm 2 mps 743 mmHg 97%
    17:00 +5°C° 0 mm 2 mps 744 mmHg 98%
    18:00 +5°C° 0 mm 1 mps 745 mmHg 98%
    19:00 +5°C° 0 mm 1 mps 746 mmHg 98%
    20:00 +5°C° 0 mm 1 mps 746 mmHg 98%
    21:00 +5°C° 0 mm 1 mps 747 mmHg 98%
    22:00 +5°C° 0 mm 1 mps 747 mmHg 98%
    23:00 +5°C° 0 mm 1 mps 747 mmHg 98%

    Day after tomorrow, 20 November, Wednesday

    Time Temperature Precipitation Wind Pressure Humidity
    00:00 +5°C° 0 mm 1 mps 747 mmHg 97%
    01:00 +4°C° 0 mm 1 mps 748 mmHg 97%
    02:00 +4°C° 0 mm 1 mps 748 mmHg 97%
    03:00 +4°C° 0 mm 1 mps 748 mmHg 97%
    04:00 +4°C° 0 mm 1 mps 748 mmHg 97%
    05:00 +4°C° 0 mm 1 mps 748 mmHg 97%
    06:00 +4°C° 0 mm 1 mps 748 mmHg 96%
    07:00 +4°C° 0 mm 2 mps 748 mmHg 95%
    08:00 +3°C° 0 mm 3 mps 748 mmHg 95%
    09:00 +3°C° 0 mm 3 mps 748 mmHg 93%
    10:00 +3°C° 0 mm 3 mps 748 mmHg 92%
    11:00 +3°C° 0 mm 4 mps 748 mmHg 91%
    12:00 +3°C° 0 mm 4 mps 747 mmHg 89%
    13:00 +3°C° 0 mm 4 mps 746 mmHg 87%
    14:00 +3°C° 0 mm 4 mps 746 mmHg 86%
    15:00 +3°C° 0 mm 4 mps 746 mmHg 87%
    16:00 +1°C° 0 mm 4 mps 745 mmHg 89%
    17:00 +2°C° 0 mm 3 mps 745 mmHg 91%
    18:00 +1°C° 0 mm 4 mps 745 mmHg 90%
    19:00 +1°C° 0 mm 4 mps 745 mmHg 90%
    20:00 0°C° 0 mm 4 mps 745 mmHg 89%
    21:00 0°C° 0.1 mm 4 mps 744 mmHg 90%
    22:00 0°C° 0.1 mm 4 mps 744 mmHg 91%
    23:00 0°C° 0.1 mm 4 mps 743 mmHg 91%

    21 November, Thursday

    Time Temperature Precipitation Wind Pressure Humidity
    00:00 +1°C° 0.2 mm 4 mps 743 mmHg 92%
    01:00 +1°C° 0.2 mm 4 mps 743 mmHg 92%
    02:00 +3°C° 0.2 mm 4 mps 742 mmHg 93%
    03:00 +2°C° 0.1 mm 5 mps 742 mmHg 93%
    04:00 +2°C° 0.1 mm 5 mps 742 mmHg 94%
    05:00 +2°C° 0.1 mm 5 mps 742 mmHg 94%
    06:00 +2°C° 0.2 mm 5 mps 743 mmHg 93%
    07:00 +2°C° 0.2 mm 6 mps 743 mmHg 92%
    08:00 +2°C° 0.2 mm 6 mps 743 mmHg 91%
    09:00 +2°C° 0.2 mm 7 mps 744 mmHg 91%
    10:00 +2°C° 0.2 mm 7 mps 744 mmHg 91%
    11:00 +2°C° 0.2 mm 7 mps 744 mmHg 90%
    12:00 0°C° 0.2 mm 7 mps 745 mmHg 90%
    13:00 0°C° 0.2 mm 7 mps 745 mmHg 90%
    14:00 0°C° 0.2 mm 8 mps 745 mmHg 90%
    15:00 0°C° 0.1 mm 7 mps 745 mmHg 90%
    16:00 -1°C° 0.1 mm 7 mps 746 mmHg 91%
    17:00 -1°C° 0.1 mm 7 mps 746 mmHg 91%
    18:00 -1°C° 0.1 mm 7 mps 747 mmHg 92%
    19:00 -1°C° 0.1 mm 6 mps 748 mmHg 93%
    20:00 -2°C° 0.1 mm 6 mps 748 mmHg 94%
    21:00 -2°C° 0.1 mm 6 mps 749 mmHg 93%
    22:00 -2°C° 0.1 mm 6 mps 749 mmHg 92%
    23:00 -1°C° 0.1 mm 5 mps 749 mmHg 92%

    22 November, Friday

    Time Temperature Precipitation Wind Pressure Humidity
    00:00 -1°C° 0 mm 5 mps 749 mmHg 90%
    01:00 -1°C° 0 mm 4 mps 749 mmHg 89%
    02:00 -1°C° 0 mm 4 mps 750 mmHg 87%
    03:00 0°C° 0 mm 3 mps 750 mmHg 87%
    04:00 0°C° 0 mm 3 mps 750 mmHg 87%
    05:00 0°C° 0 mm 3 mps 750 mmHg 87%
    06:00 -1°C° 0 mm 3 mps 751 mmHg 88%
    07:00 -1°C° 0 mm 2 mps 751 mmHg 89%
    08:00 -1°C° 0 mm 2 mps 751 mmHg 90%
    09:00 +1°C° 0 mm 2 mps 751 mmHg 85%
    10:00 +3°C° 0 mm 1 mps 751 mmHg 80%
    11:00 +4°C° 0 mm 1 mps 752 mmHg 76%
    12:00 +5°C° 0 mm 1 mps 751 mmHg 74%
    13:00 +5°C° 0 mm 1 mps 751 mmHg 73%
    14:00 +5°C° 0 mm 1 mps 751 mmHg 71%
    15:00 +4°C° 0 mm 1 mps 751 mmHg 76%
    16:00 +3°C° 0 mm 1 mps 751 mmHg 81%
    17:00 +2°C° 0 mm 1 mps 751 mmHg 86%
    18:00 +2°C° 0 mm 2 mps 750 mmHg 86%
    19:00 +2°C° 0 mm 2 mps 750 mmHg 85%
    20:00 +2°C° 0 mm 3 mps 750 mmHg 85%
    21:00 +2°C° 0 mm 3 mps 749 mmHg 87%
    22:00 +3°C° 0 mm 4 mps 748 mmHg 89%
    23:00 +3°C° 0 mm 4 mps 747 mmHg 90%

    23 November, Saturday

    Time Temperature Precipitation Wind Pressure Humidity
    00:00 +3°C° 0.3 mm 5 mps 746 mmHg 92%
    01:00 +5°C° 0.3 mm 5 mps 745 mmHg 93%
    02:00 +6°C° 0.3 mm 5 mps 745 mmHg 95%
    03:00 +7°C° 0.9 mm 6 mps 743 mmHg 95%
    04:00 +9°C° 0.9 mm 7 mps 742 mmHg 94%
    05:00 +10°C° 0.9 mm 7 mps 741 mmHg 94%
    06:00 +10°C° 0.2 mm 7 mps 740 mmHg 93%
    07:00 +10°C° 0.2 mm 7 mps 739 mmHg 92%
    08:00 +11°C° 0.2 mm 7 mps 738 mmHg 91%
    09:00 +11°C° 0.4 mm 7 mps 738 mmHg 91%
    10:00 +11°C° 0.4 mm 8 mps 738 mmHg 90%
    11:00 +11°C° 0.4 mm 8 mps 737 mmHg 90%
    12:00 +7°C° 0.7 mm 8 mps 738 mmHg 87%
    13:00 +4°C° 0.7 mm 8 mps 739 mmHg 85%
    14:00 +2°C° 0.7 mm 7 mps 740 mmHg 83%
    15:00 +1°C° 0 mm 6 mps 741 mmHg 81%
    16:00 0°C° 0 mm 5 mps 742 mmHg 78%
    17:00 -1°C° 0 mm 5 mps 743 mmHg 76%
    18:00 -2°C° 0 mm 4 mps 744 mmHg 76%
    19:00 -3°C° 0 mm 4 mps 745 mmHg 75%
    20:00 -3°C° 0 mm 4 mps 745 mmHg 75%
    21:00 -4°C° 0 mm 3 mps 746 mmHg 75%
    22:00 -4°C° 0 mm 3 mps 746 mmHg 75%
    23:00 -4°C° 0 mm 3 mps 746 mmHg 75%
    Show more